Location: Silverdale
(47.6506°N, 122.6941°W)
Time: 09:16:03
(UTC+00:00)

Tiros 1 despin weight - Pass Details

Date: 05 October 2022
Orbit: 590 x 637 km, 48.2° (Epoch: 02 December)

Event Time Altitude Azimuth Distance (km) Brightness Sun altitude
Rises 04:34:45 0° 285° (WNW) 2,888 ? -28.8°
Reaches altitude 10° 04:37:07 10° 279° (W) 1,988 ? -29.2°
Enters shadow 04:39:57 32° 254° (WSW) 1,074 ? -29.6°
